Home   Weather   Kreuzlingen   Past weeks

Flag for Switzerland Past Weather in Kreuzlingen, Thurgau, Switzerland — Yesterday and Last 2 Weeks

Now
61 °F

Sunny.


Feels Like: 61 °F
Forecast: 50 / 68 °F
Wind: 2 mph from North

Location: Friedrichshafen Airport

Current Time: Sep 30, 2016 at 10:30:10 AM

Latest Report: Sep 30, 2016 at 9:50 AM


Visibility: 10 mi

Pressure: 30.09 "Hg

Humidity: 83%

Dew Point: 55 °F

Location of KreuzlingenLocation

Past Weather in Kreuzlingen — Graph

°F

Kreuzlingen Temperature Yesterday

Maximum temperature yesterday: 72 °F (at 2:50 PM)
Minimum temperature yesterday: 46 °F (at 4:50 AM)
Average temperature yesterday: 58 °F

High & Low Weather Summary for the Past Weeks

 TemperatureHumidityPressure
High72 °F (Sep 15, 5:20 PM)100% (Sep 16, 12:20 AM)30.48 "Hg (Sep 16, 12:20 AM)
Low45 °F (Sep 22, 2:20 AM)53% (Sep 24, 4:20 PM)29.83 "Hg (Sep 15, 8:20 AM)
Average58 °F86%30.14 "Hg
* Reported Sep 15 8:20 AM — Sep 30 8:50 AM, Kreuzlingen, Weather by CustomWeather, © 2016

Note: Actual official high and low records may vary slightly from our data, if they occured in-between our weather recording intervals... More about our weather records

Advertising

Kreuzlingen Weather History for the Previous 24 Hours

Scroll right to see more
 ConditionsComfort  
Time TempWeatherWind HumidityBarometerVisibility
8:50 AM
Fri, Sep 30
54 °FSunny.2 mph94%30.09 "Hg10 mi
7:50 AM46 °FSunny.2 mph100%30.09 "Hg10 mi
7:20 AM45 °FSunny.1 mph100%30.09 "Hg10 mi
6:50 AM46 °FClear.2 mph100%30.09 "Hg10 mi
6:20 AM48 °FClear.2 mph100%30.09 "Hg4 mi
5:50 AM48 °FClear.1 mph94%30.09 "Hg10 mi
5:20 AM46 °FCool.2 mph100%30.09 "HgN/A
4:59 AM46 °FCool.1 mph100%30.09 "Hg2 mi
4:20 AM48 °FCool.1 mph100%30.09 "Hg2 mi
3:55 AM48 °FCool.3 mph94%30.09 "Hg6 mi
3:20 AM48 °FCool.1 mph100%30.12 "HgN/A
2:50 AM48 °FCool.5 mph94%30.12 "HgN/A
2:20 AM50 °FCool.1 mph94%30.12 "Hg1 mi
1:50 AM50 °FCool.No wind94%30.12 "Hg5 mi
1:20 AM48 °FCool.3 mph100%30.12 "HgN/A
12:50 AM50 °FCool.5 mph100%30.12 "HgN/A
12:20 AM54 °FCool.2 mph94%30.12 "HgN/A
11:50 PM
Thu, Sep 29
55 °FCool.1 mph94%30.12 "HgN/A
11:20 PM55 °FCool.1 mph94%30.12 "HgN/A
10:50 PM55 °FClear.1 mph88%30.12 "Hg10 mi
9:50 PM59 °FClear.1 mph82%30.12 "Hg10 mi
9:20 PM59 °FClear.2 mph82%30.12 "Hg10 mi
8:50 PM61 °FClear.1 mph77%30.12 "Hg10 mi
7:50 PM61 °FClear.No wind83%30.12 "Hg10 mi
7:20 PM63 °FClear.2 mph77%30.15 "Hg10 mi
6:50 PM66 °FSunny.2 mph73%30.15 "Hg10 mi
6:20 PM70 °FSunny.3 mph60%30.15 "Hg10 mi
5:50 PM70 °FSunny.5 mph60%30.15 "Hg10 mi
5:20 PM72 °FSunny.7 mph53%30.15 "Hg10 mi
4:50 PM72 °FSunny.6 mph57%30.15 "Hg10 mi
4:20 PM72 °FSunny.6 mph53%30.15 "Hg10 mi
3:50 PM72 °FSunny.7 mph57%30.18 "Hg10 mi
3:20 PM72 °FSunny.7 mph57%30.18 "Hg10 mi
2:50 PM72 °FSunny.7 mph57%30.21 "Hg10 mi
2:20 PM70 °FPassing clouds.5 mph64%30.21 "HgN/A
1:50 PM68 °FPassing clouds.6 mph69%30.24 "HgN/A
1:20 PM66 °FSunny.6 mph73%30.24 "Hg10 mi
12:50 PM66 °FSunny.6 mph68%30.27 "Hg10 mi
12:20 PM66 °FSunny.6 mph64%30.27 "Hg10 mi
11:50 AM66 °FSunny.2 mph73%30.27 "Hg10 mi
11:20 AM64 °FSunny.1 mph73%30.30 "Hg10 mi
10:50 AM61 °FSunny.1 mph83%30.30 "Hg10 mi
10:20 AM57 °FPassing clouds.2 mph94%30.33 "HgN/A
Weather by CustomWeather, © 2016

See weather overviewHow to use our weather pages